EST,Max TemperatureF,Mean TemperatureF,Min TemperatureF,Max Dew PointF,MeanDew PointF,Min DewpointF,Max Humidity, Mean Humidity, Min Humidity, Max Sea Level PressureIn, Mean Sea Level PressureIn, Min Sea Level PressureIn, Max VisibilityMiles, Mean VisibilityMiles, Min VisibilityMiles, Max Wind SpeedMPH, Mean Wind SpeedMPH, Max Gust SpeedMPH,PrecipitationIn, CloudCover, Events, WindDirDegrees
2012-11-1,56,42,27,30,25,19,81,54,24,29.98,29.92,29.89,10,10,10,15,6,18,0.00,3,,248
2012-11-2,57,47,38,35,32,30,79,55,38,30.08,29.97,29.85,10,10,10,12,6,,0.00,3,Rain,333
2012-11-3,52,44,37,40,34,30,85,72,53,30.15,30.08,29.99,10,10,6,13,6,17,0.01,6,Rain,60
2012-11-4,52,42,33,36,33,29,95,74,44,30.18,30.14,30.10,10,10,10,7,6,,0.00,0,,1
2012-11-5,49,38,27,34,30,25,94,73,48,30.18,30.13,30.06,10,10,10,9,3,,0.00,5,,37
2012-11-6,53,43,33,41,33,28,95,69,42,30.04,29.98,29.91,10,9,4,6,4,,0.03,5,Rain,316
2012-11-7,46,42,36,42,40,35,100,90,73,30.14,29.96,29.87,10,5,2,8,2,,0.02,7,Rain,322
2012-11-8,54,42,30,45,35,30,100,87,49,30.27,30.21,30.15,10,6,0,6,3,,0.00,1,Fog,291
2012-11-9,63,47,31,41,37,30,100,69,40,30.31,30.19,30.13,10,9,3,12,4,,0.00,1,,160
2012-11-10,72,58,45,49,41,37,73,55,34,30.23,30.18,30.12,10,10,10,17,9,23,0.00,0,,180
2012-11-11,68,59,50,49,42,38,64,52,39,30.24,30.15,30.06,10,10,10,22,12,33,0.00,2,,164
2012-11-12,63,46,29,56,40,24,96,82,55,30.45,30.20,29.99,10,8,2,18,13,28,0.57,5,Rain,248
2012-11-13,45,34,24,28,23,21,92,66,38,30.53,30.48,30.44,10,10,10,6,2,,0.00,0,,360
2012-11-14,45,36,28,30,26,22,81,67,49,30.51,30.43,30.37,10,10,10,9,4,,0.00,1,,34
2012-11-15,49,38,26,30,27,23,90,69,44,30.38,30.34,30.32,10,10,10,7,4,,0.00,3,,10
2012-11-16,52,42,31,33,30,27,93,70,44,30.45,30.41,30.36,10,10,5,9,5,,0.00,1,,13
2012-11-17,58,45,32,33,31,29,86,61,35,30.52,30.46,30.42,10,10,10,9,4,,0.00,0,,54
2012-11-18,62,46,31,32,29,26,81,54,26,30.43,30.39,30.34,10,10,10,7,3,,0.00,1,,64
2012-11-19,61,46,32,37,32,28,82,61,34,30.35,30.28,30.18,10,10,10,5,0,,0.00,4,,242
2012-11-20,64,52,40,44,40,33,79,60,40,30.18,30.12,30.05,10,10,10,9,2,,0.00,7,,254
2012-11-21,63,52,41,43,40,37,91,69,43,30.23,30.19,30.10,10,8,4,8,4,,0.00,2,,352
2012-11-22,66,51,36,44,40,34,95,72,44,30.27,30.15,30.06,10,9,4,15,3,,0.00,1,,190
2012-11-23,55,44,31,49,35,19,88,62,45,30.24,30.10,30.01,10,10,5,20,11,33,0.00,4,,268
2012-11-24,36,28,21,19,18,15,80,66,50,30.30,30.24,30.16,10,10,10,9,6,,0.00,1,,297
2012-11-25,54,38,23,25,22,19,82,56,29,30.14,30.04,29.94,10,10,10,16,6,24,0.00,3,,209
2012-11-26,48,40,31,40,29,23,94,65,41,30.21,30.14,30.06,10,10,5,9,2,,0.15,5,Rain,43
2012-11-27,42,34,27,36,31,26,94,81,60,30.36,30.30,30.19,10,8,4,12,7,,0.04,5,Rain,3
2012-11-28,45,34,22,29,24,21,96,74,41,30.47,30.41,30.34,10,8,4,7,1,,0.00,0,,232
2012-11-29,52,38,25,30,27,22,89,65,37,30.41,30.34,30.26,10,10,10,9,3,,0.00,2,,170
2012-11-30,58,50,41,41,35,28,79,62,52,30.28,30.22,30.18,10,10,10,15,9,21,0.00,1,,197